EST,Max TemperatureF,Mean TemperatureF,Min TemperatureF,Max Dew PointF,MeanDew PointF,Min DewpointF,Max Humidity, Mean Humidity, Min Humidity, Max Sea Level PressureIn, Mean Sea Level PressureIn, Min Sea Level PressureIn, Max VisibilityMiles, Mean VisibilityMiles, Min VisibilityMiles, Max Wind SpeedMPH, Mean Wind SpeedMPH, Max Gust SpeedMPH,PrecipitationIn, CloudCover, Events, WindDirDegrees
2012-12-1,64,47,30,43,38,30,100,80,45,30.40,30.34,30.31,10,8,0,8,1,,0.00,1,Fog,249
2012-12-2,68,52,35,50,44,36,100,81,46,30.38,30.31,30.25,10,9,5,16,2,20,0.00,3,,226
2012-12-3,73,58,42,50,45,41,100,76,36,30.32,30.27,30.23,10,10,4,10,2,,0.00,2,,238
2012-12-4,71,56,41,52,46,39,100,70,35,30.32,30.25,30.18,10,10,10,13,2,20,0.00,3,,231
2012-12-5,64,54,44,55,49,36,93,72,47,30.20,30.16,30.13,10,10,10,9,4,,0.01,7,Rain,256
2012-12-6,50,46,42,34,34,32,70,61,54,30.31,30.24,30.21,10,10,10,8,4,,0.00,8,,358
2012-12-7,50,47,44,46,40,32,100,77,54,30.21,30.10,30.02,10,7,1,4,0,,0.02,8,Rain,320
2012-12-8,68,57,46,54,49,45,100,84,49,30.06,30.02,29.98,10,6,0,12,4,,0.00,5,Fog,247
2012-12-9,68,59,50,57,54,50,100,88,64,30.12,30.06,29.99,10,7,0,10,3,17,0.00,6,Fog,255
2012-12-10,64,60,55,59,56,55,100,90,73,29.98,29.80,29.70,10,8,1,15,6,23,0.06,8,Rain,224
2012-12-11,60,50,41,55,39,30,100,63,47,30.15,29.95,29.73,10,10,10,12,6,16,0.00,4,,331
2012-12-12,46,42,39,32,30,27,70,59,53,30.31,30.24,30.15,10,10,10,14,5,17,0.00,6,Rain,15
2012-12-13,51,38,26,28,24,19,86,54,28,30.40,30.34,30.27,10,10,10,10,6,17,0.00,4,,24
2012-12-14,57,40,23,30,26,21,100,72,31,30.38,30.31,30.24,10,10,10,6,0,,0.00,0,,248
2012-12-15,59,46,32,34,32,28,100,68,33,30.25,30.17,30.08,10,10,10,8,1,,0.00,2,,199
2012-12-16,55,48,42,54,44,34,100,82,58,30.08,30.00,29.93,10,8,2,5,1,,0.19,8,Rain,240
2012-12-17,55,53,51,54,52,50,100,97,88,29.90,29.78,29.67,10,8,2,17,3,24,0.12,8,Rain,225
2012-12-18,57,44,32,52,38,23,100,72,29,29.94,29.80,29.67,10,9,0,17,8,24,0.00,3,Fog,263
2012-12-19,64,46,28,37,33,28,100,72,30,30.10,30.02,29.92,10,10,10,7,1,,0.00,0,,265
2012-12-20,50,42,33,46,39,32,100,88,62,30.11,29.88,29.56,10,8,2,21,2,24,0.70,5,Rain,268
2012-12-21,44,38,33,41,24,19,87,57,39,29.89,29.74,29.61,10,10,10,18,10,29,0.00,6,,268
2012-12-22,55,42,28,21,15,9,74,42,15,30.12,30.04,29.89,10,10,10,12,6,21,0.00,0,,267
2012-12-23,53,38,23,30,20,12,93,55,19,30.14,30.08,30.02,10,10,10,8,2,,0.00,1,,243
2012-12-24,48,44,41,45,40,30,100,88,50,30.02,29.95,29.88,10,6,1,7,3,,0.36,8,Rain,245
2012-12-25,51,46,42,45,43,41,100,91,67,30.10,30.02,29.93,10,6,0,7,1,,0.00,6,Fog-Rain,307
2012-12-26,46,42,37,46,41,28,100,94,65,29.98,29.66,29.48,10,8,1,17,6,26,1.43,7,Rain,19
2012-12-27,50,39,28,32,29,27,100,71,43,30.08,29.92,29.71,10,10,10,13,4,20,0.00,0,,279
2012-12-28,44,35,26,34,29,27,100,84,53,30.17,30.07,29.97,10,10,7,4,0,,0.00,2,Rain,80
2012-12-29,51,42,32,39,32,23,100,78,43,30.03,29.84,29.73,10,7,2,15,3,26,0.09,6,Rain,284
2012-12-30,46,36,26,25,21,16,86,59,29,30.38,30.27,30.05,10,10,7,9,3,,0.00,0,,261
2012-12-31,53,40,26,28,25,21,100,62,28,30.36,30.25,30.11,10,10,10,14,3,21,0.00,2,,231